Вернуться в каталог

GONETS M 09

M19

АктивенСвязьPO
NORAD 40062·PAYLOAD·🇷🇺 Russia

Запущен Jul 3, 2014 с Plesetsk Cosmodrome

Loading…

Ближайшие Пролёты (ближайшие 24 часа)

TLE

СвежийSource: Space-Track

Эпоха: Sep 14, 2026, 23:58 UTC

1 40062U 14036B   26257.99862762 -.00000035  00000-0 -32206-3 0  9993
2 40062  82.5046 251.8628 0022372 322.6754  37.2770 12.42953211553612

Отслеживайте GONETS M 09 в реальном времени с AllMySat

Download on the App Store